Wind_Gust
21 20 20 20 20 21 20 18 17 17 18 17 17 17 15 16 16 15 15 14 15 14 13 14 13 12 12 11 12 12 11 12 11 12 12 11 10 10 11 11 10 7 8 7 6 8 9 8 6 5 4 5 2 2 3 2 3 5 6 8 6 4 6 4 5 8 10 6 8 10 13 7 11 8 13 13 14 17 16 14 15 16 16 15 16
22 20 19 21 21 21 20 17 18 17 18 17 17 17 16 18 17 16 16 15 14 15 15 14 12 13 12 12 12 11 11 12 11 12 13 11 9 10 11 11 9 7 7 7 7 8 8 8 6 6 6 7 6 5 4 8 5 7 5 5 3 2 2 4 4 5 9 8 8 11 10 6 10 8 11 13 14 17 20 17 16 16 17 16 16
21 21 21 21 21 21 20 18 18 18 19 17 16 17 17 18 17 17 16 15 13 15 16 15 14 14 13 12 12 12 12 12 11 12 11 11 12 10 10 10 10 9 9 8 7 7 9 8 5 3 3 5 5 5 6 7 5 7 7 4 4 2 2 2 4 5 7 9 8 9 7 8 8 10 11 11 14 17 18 18 18 19 19 17 16
21 21 21 21 21 20 21 19 20 19 19 17 17 16 19 18 17 18 16 16 16 14 14 16 15 14 14 13 13 12 12 12 11 10 11 12 11 10 11 11 9 8 9 8 8 9 9 8 6 4 4 4 2 5 6 7 5 6 6 7 5 5 5 5 4 5 5 9 8 9 8 9 9 9 10 13 15 16 17 17 16 18 18 19 18
25 23 22 23 22 22 20 20 21 20 18 17 18 18 18 17 16 18 17 16 15 15 15 14 14 15 16 15 14 13 13 12 11 11 11 9 9 10 11 10 9 9 9 9 9 8 8 8 6 5 5 8 6 6 6 6 6 7 6 7 6 5 7 7 8 5 6 8 9 8 6 8 8 8 9 15 14 14 15 17 19 18 17 17 17
23 22 23 24 23 22 20 20 21 20 19 18 18 18 18 17 15 15 17 17 14 15 15 14 14 14 14 14 14 13 13 11 11 12 11 9 9 10 10 10 8 9 9 8 8 8 7 8 6 6 7 9 5 5 5 5 5 6 6 6 7 6 7 8 6 8 7 6 6 10 6 10 10 9 10 13 14 16 16 20 18 16 17 19 21
23 23 23 23 22 22 21 20 21 20 18 18 17 18 18 17 17 18 17 16 16 15 14 14 13 14 15 14 15 14 14 13 12 11 11 10 11 11 11 9 8 9 8 8 7 7 8 8 8 9 9 8 7 6 6 6 7 5 6 5 7 7 8 7 9 8 7 9 7 5 8 8 7 10 11 11 12 13 16 18 20 21 19 18 20
22 23 24 23 23 22 21 20 21 20 18 18 18 17 17 17 17 17 16 15 16 16 16 15 14 14 14 14 14 14 13 13 13 12 12 12 12 11 11 10 10 9 8 7 7 8 9 10 11 9 10 8 8 6 6 6 9 7 7 7 8 7 8 8 9 9 9 9 6 8 8 8 12 7 11 10 11 13 14 18 21 22 21 21 18
24 23 23 23 22 22 21 20 19 19 19 19 19 18 18 17 17 17 15 15 15 15 13 13 13 13 12 13 13 12 13 13 13 13 13 12 12 12 11 12 12 10 8 8 9 10 10 10 9 8 9 12 11 8 8 7 6 7 7 6 6 7 7 8 9 9 10 9 11 10 11 12 10 10 14 10 14 18 21 16 19 17 18 20 21
24 24 24 23 21 21 21 20 20 20 20 20 18 18 18 16 17 16 15 16 16 15 13 13 14 14 14 14 13 13 13 11 13 15 11 13 12 13 12 12 11 10 10 10 10 10 11 10 9 14 13 13 10 8 7 6 7 7 4 4 4 5 5 6 8 9 8 9 9 10 11 12 12 10 10 9 12 14 17 17 19 19 17 15 19
23 23 23 22 22 22 22 21 21 21 20 20 18 19 18 16 16 16 15 16 16 14 13 14 13 12 13 15 15 14 13 13 17 16 16 16 13 12 12 11 10 10 11 11 11 12 11 10 7 9 10 9 6 6 5 7 7 6 4 5 6 3 3 4 5 6 7 7 9 9 9 11 14 11 9 12 12 14 16 17 18 19 21 23 27
23 23 22 22 22 22 21 21 21 20 20 21 20 18 17 16 16 15 14 15 13 13 13 14 13 11 13 14 14 14 11 12 19 17 17 17 12 13 11 11 11 10 10 11 12 13 12 10 7 6 6 6 5 4 5 6 7 7 7 7 7 7 5 3 2 4 3 6 8 9 9 11 12 13 12 9 12 13 13 15 16 18 21 21 21
23 22 22 23 23 22 21 21 21 21 21 22 19 19 19 17 16 15 14 14 12 13 12 13 12 11 13 14 14 12 11 15 18 17 16 16 17 13 12 11 11 10 10 11 12 13 13 11 9 10 9 14 11 7 7 7 9 10 9 8 9 10 11 11 9 8 4 5 6 10 8 8 11 14 9 12 10 12 13 15 16 17 18 18 20
23 22 23 24 24 23 22 21 21 21 20 21 21 21 19 18 15 13 14 14 14 12 11 13 12 10 12 14 13 12 15 14 18 17 15 15 16 12 10 11 10 10 11 12 13 13 13 13 11 9 8 8 8 10 9 11 11 10 9 9 10 13 13 14 14 14 10 10 8 10 12 7 14 13 16 9 11 14 14 15 16 17 19 21 21
22 23 24 24 23 22 22 22 22 20 21 21 20 19 19 16 16 15 16 17 16 15 14 13 12 11 11 13 14 14 15 16 19 17 16 14 13 9 7 9 10 9 10 10 13 14 13 13 12 11 9 8 6 5 6 6 5 6 9 13 14 14 12 12 12 11 11 12 13 14 17 15 13 14 14 12 10 13 11 15 18 18 20 17 15
21 21 22 24 25 23 22 22 21 21 22 21 20 19 17 17 17 14 14 13 12 12 9 11 12 11 12 15 15 15 14 15 18 17 16 14 12 8 8 5 7 9 9 10 10 13 14 12 11 11 13 11 8 8 7 8 6 8 12 9 9 11 13 13 13 12 13 12 13 14 15 15 14 17 19 18 15 13 12 14 14 13 15 14 18
22 22 22 23 24 25 24 22 22 23 22 21 20 19 18 17 14 14 16 14 15 14 12 12 12 14 15 16 18 18 18 17 21 21 20 18 13 12 10 11 7 5 9 7 8 9 8 9 10 12 11 10 11 11 8 7 4 7 12 12 12 10 8 9 10 12 13 14 16 16 20 21 22 22 21 22 20 10 8 11 13 13 12 16 16
22 22 24 24 24 25 23 23 25 23 21 22 20 18 17 15 15 16 18 16 15 14 12 12 12 15 17 18 22 23 19 21 25 21 20 17 15 15 11 12 12 12 14 12 11 7 8 9 8 10 13 11 11 12 10 7 5 7 12 11 10 8 6 8 7 6 9 11 14 18 20 21 22 21 20 19 21 12 10 11 15 10 12 12 19
22 23 23 23 22 22 21 24 24 24 23 22 20 19 19 18 16 15 14 14 13 11 12 15 14 14 14 17 24 24 20 18 19 19 17 17 16 14 13 11 12 10 12 13 12 10 12 13 14 10 12 12 14 12 11 8 7 5 10 9 9 5 8 8 8 11 13 15 17 16 18 17 17 14 12 11 8 8 8 10 11 10 11 13 15
20 21 22 22 21 20 20 21 22 22 22 21 20 19 17 15 15 15 13 14 14 12 12 14 14 12 12 16 17 18 18 16 19 20 20 19 18 17 14 12 12 11 11 16 18 14 12 10 11 14 14 16 15 14 12 9 7 6 6 8 8 6 8 8 7 6 10 13 14 16 19 19 17 11 6 6 9 7 9 11 9 7 9 11 13
21 20 20 20 20 20 20 22 21 18 18 19 16 15 15 16 16 16 16 14 13 13 14 13 14 11 11 12 14 13 17 19 18 18 19 19 18 17 16 13 10 10 10 15 16 15 13 13 11 13 17 17 15 13 11 9 7 6 5 6 4 6 7 8 12 9 10 12 16 18 16 15 14 8 5 6 9 11 11 10 7 6 9 11 12
22 23 23 21 20 20 20 17 19 19 17 17 17 16 14 16 17 17 15 15 15 14 12 12 13 12 10 11 13 13 14 19 18 19 22 22 21 23 19 14 11 8 10 11 13 13 15 16 14 15 18 18 17 15 13 11 8 6 9 8 10 10 11 9 10 10 11 12 15 15 15 14 12 8 8 7 10 11 11 9 8 10 11 8 9
24 22 22 18 19 19 18 18 17 16 17 16 18 18 17 17 16 16 16 16 17 16 14 14 14 13 11 10 10 10 15 17 21 20 19 21 21 21 20 13 10 10 8 8 9 12 8 13 17 21 18 18 17 16 14 13 9 9 11 11 10 11 9 9 9 10 11 13 15 14 15 13 8 8 9 9 11 9 9 8 10 12 12 12 11
23 21 20 19 19 18 18 17 16 16 18 17 16 17 16 16 15 15 17 19 19 17 14 14 14 14 14 13 13 14 16 16 16 21 19 18 17 19 18 15 12 8 8 8 7 6 12 13 15 23 21 19 18 18 16 14 12 10 9 9 10 9 9 11 11 10 10 15 14 13 13 11 7 9 9 10 10 8 8 7 11 12 12 14 13
21 20 20 21 20 19 18 17 17 17 17 19 19 18 16 16 17 14 16 16 17 17 16 15 16 14 14 16 15 12 14 14 14 17 19 18 17 17 17 14 10 9 9 5 5 7 8 12 13 21 21 20 19 15 10 10 10 10 12 13 11 9 10 9 11 10 13 14 14 14 13 9 9 9 9 8 8 6 8 10 10 11 12 13 13
21 20 21 21 20 18 18 15 15 17 17 16 18 18 21 19 18 17 17 16 17 17 17 17 17 16 17 15 16 14 13 14 17 17 16 15 15 17 16 16 12 9 6 8 8 7 8 11 9 13 12 11 11 9 9 9 10 13 14 13 10 11 10 11 11 12 14 14 13 14 14 8 9 10 9 7 5 6 8 12 11 13 12 13 17
20 19 19 19 18 19 20 19 18 17 16 15 14 15 15 16 17 17 18 19 19 17 16 15 16 17 17 16 15 15 16 16 18 14 13 15 17 17 16 13 10 8 9 9 7 7 5 6 7 8 10 11 10 5 6 6 8 9 10 9 10 13 14 13 14 15 14 13 13 14 13 11 9 8 9 10 8 8 6 11 10 11 11 11 10
23 20 21 19 19 19 18 15 19 19 17 18 19 18 15 15 18 20 21 21 20 19 18 18 19 18 17 15 15 16 19 15 17 18 17 18 18 17 16 14 14 15 14 13 12 10 11 7 7 8 9 8 8 7 7 8 9 8 10 10 11 14 15 14 13 13 15 15 14 12 11 10 9 10 10 8 7 9 8 10 7 11 11 10 11
20 19 18 18 17 16 18 19 18 18 17 16 14 17 22 22 19 15 15 15 18 22 21 18 17 16 16 17 18 18 17 18 19 13 22 17 21 20 18 20 19 18 16 11 9 10 10 10 9 11 10 10 10 11 11 10 10 11 11 12 12 14 14 14 15 16 17 15 15 14 14 12 10 9 8 8 8 10 9 11 8 10 12 7 9
18 18 17 17 18 17 17 18 17 17 18 17 17 14 9 8 9 15 17 13 15 12 12 20 20 17 16 15 17 20 21 19 18 24 19 19 18 20 19 19 18 16 11 16 12 11 11 12 13 12 12 11 12 11 11 11 10 10 12 10 14 14 13 13 14 16 14 14 15 12 11 9 10 9 7 8 10 10 10 7 9 9 9 10 10
17 17 17 17 18 18 18 18 17 18 18 16 15 16 15 9 10 11 10 14 13 15 16 14 15 15 16 14 12 14 15 19 26 23 21 21 20 20 19 18 17 15 14 16 11 13 12 13 12 12 13 12 11 11 10 10 11 10 12 11 13 16 15 16 16 12 13 11 12 12 10 9 9 8 10 10 10 11 10 10 8 9 10 10 9
20 18 17 17 18 16 19 17 17 17 17 17 16 17 17 14 7 9 12 16 15 15 17 17 16 15 15 13 9 6 15 22 24 23 22 21 21 20 20 18 17 17 16 17 14 13 11 12 12 13 13 12 12 12 13 13 12 12 13 13 13 12 14 13 13 12 12 11 9 8 9 9 10 10 11 11 8 9 10 11 10 10 11 9 8
17 16 16 18 17 15 16 16 16 17 17 18 17 18 20 18 17 10 9 11 10 16 18 16 16 17 15 13 16 14 12 15 22 22 22 22 21 20 18 17 17 17 16 16 14 14 13 13 13 12 13 13 13 13 14 13 13 13 12 11 11 12 13 16 13 13 10 11 10 8 10 9 10 11 9 9 7 8 10 9 11 9 9 9 10
16 18 18 19 19 17 17 16 16 16 15 16 16 18 17 17 16 16 13 10 9 8 7 8 12 14 14 17 16 16 17 19 19 21 21 20 18 16 15 15 14 17 18 18 14 14 14 15 14 14 14 12 11 11 11 12 12 12 12 12 12 12 13 11 9 10 8 10 9 11 10 11 12 9 10 9 9 7 8 9 10 8 12 12 11
17 15 17 14 16 16 15 15 14 14 14 15 14 15 14 12 13 16 18 18 18 17 14 8 4 8 13 13 17 18 18 17 17 17 17 17 17 16 15 15 10 7 13 11 13 13 14 16 17 16 13 12 12 11 12 11 11 11 12 14 13 13 11 11 12 9 8 8 7 7 8 7 8 5 8 9 9 11 11 11 13 13 12 12 10
19 19 17 16 15 15 16 16 15 14 15 12 11 12 12 14 14 14 15 13 13 14 11 10 9 6 8 9 14 16 16 16 17 17 17 18 18 19 16 12 10 12 12 13 14 14 14 16 15 15 12 10 9 10 10 10 10 10 10 10 11 11 10 12 10 10 8 6 8 7 8 6 6 5 6 7 9 10 10 11 12 12 11 11 11
20 19 17 16 17 17 17 17 17 16 10 11 11 12 12 12 12 14 15 14 13 11 11 11 11 9 7 5 9 10 13 14 14 16 18 19 21 20 16 18 17 15 14 16 15 14 15 13 11 11 11 12 12 12 12 12 12 11 9 11 10 11 12 11 9 7 8 7 6 5 5 7 8 9 11 12 12 11 13 14 14 12 10 12 7
16 18 17 18 19 18 17 16 16 13 15 14 12 11 11 11 11 13 14 14 14 13 15 14 10 14 16 12 10 9 12 11 15 11 8 8 13 14 14 15 16 16 15 13 13 13 13 12 11 12 12 11 11 10 11 12 12 11 11 12 11 11 10 13 8 9 7 8 8 7 8 10 10 11 9 9 14 16 16 14 12 12 10 8 10
16 14 16 16 11 15 15 15 15 15 14 13 14 12 12 12 11 11 12 12 12 12 13 15 18 20 18 15 15 12 15 12 12 13 14 15 15 14 13 14 14 14 13 14 13 14 13 14 13 13 13 13 13 12 12 11 11 12 12 9 11 9 11 11 9 9 8 7 8 9 10 10 11 11 11 13 13 13 12 11 10 10 10 12 12
16 14 15 16 13 12 13 13 15 14 13 14 12 13 14 13 13 12 12 13 13 14 13 14 16 15 15 18 18 17 18 16 15 15 15 14 16 16 15 13 15 15 15 14 14 14 14 13 12 12 14 13 13 14 14 14 14 13 13 13 13 13 12 11 9 8 9 10 9 9 9 10 11 9 10 9 11 11 10 11 10 10 11 10 12
15 15 12 12 13 15 13 14 13 13 14 12 11 13 13 13 13 12 12 13 12 13 13 14 14 16 17 22 20 21 21 18 17 16 17 18 17 17 18 17 16 16 15 15 15 16 16 14 13 13 13 14 14 15 15 14 12 12 12 12 12 12 12 8 8 9 11 9 10 10 11 11 10 11 12 12 9 10 11 11 11 11 12 11 11
18 17 15 14 16 15 15 14 12 12 12 11 13 13 11 11 11 12 11 10 11 13 14 13 13 15 16 24 24 25 21 17 17 17 17 18 18 18 18 16 15 16 18 19 19 17 15 15 15 14 14 14 14 14 13 14 13 13 13 12 13 11 10 10 9 9 9 10 9 10 9 12 12 12 12 9 13 12 12 12 13 13 13 12 12
17 17 16 14 15 15 15 15 15 16 15 14 13 9 11 13 12 10 11 10 10 12 12 12 12 14 18 23 26 25 20 17 12 18 17 17 18 17 18 19 19 19 17 14 13 13 13 14 14 15 14 16 15 13 11 12 12 12 12 12 12 11 12 12 11 11 10 11 11 10 10 9 11 11 11 11 11 12 13 13 12 12 12 11 11
15 14 13 13 12 13 12 12 13 12 13 12 12 12 14 14 13 12 12 13 12 11 11 11 11 12 15 20 23 24 20 18 17 18 17 16 18 18 20 20 18 17 17 16 15 14 13 12 11 12 13 14 12 10 11 12 11 11 12 12 11 11 11 10 10 11 11 11 11 10 10 9 10 11 11 11 11 11 12 10 11 12 12 11 9
15 14 13 13 12 12 12 11 12 12 13 13 10 11 12 13 13 14 12 12 11 12 12 10 10 10 13 16 18 19 19 17 15 14 16 16 16 18 18 17 16 17 16 15 15 14 13 13 13 11 11 13 12 12 12 12 12 12 11 12 13 13 13 13 13 13 12 10 12 11 11 11 11 11 11 12 11 11 12 12 12 8 9 10 10
15 14 14 12 11 11 11 11 11 11 14 13 11 12 12 12 13 12 12 11 11 12 10 10 8 9 12 15 16 16 17 16 15 15 14 13 13 15 16 17 16 16 15 14 14 16 13 15 13 13 14 14 16 15 14 12 12 12 11 10 13 14 15 14 12 11 11 11 13 12 12 11 12 12 12 13 13 11 11 10 8 9 9 10 12
14 14 14 12 12 12 12 12 11 11 12 11 11 12 13 12 12 10 11 12 12 11 10 10 9 9 10 12 13 14 14 14 14 13 14 13 13 14 15 15 15 15 16 16 15 14 13 14 14 14 14 14 15 16 15 13 11 11 11 12 11 12 12 11 11 12 12 13 13 12 13 14 14 13 15 14 11 12 10 12 12 9 10 11 12
13 13 13 12 13 13 12 12 12 9 11 11 11 11 11 11 11 11 11 10 11 11 11 10 10 10 10 11 12 13 13 14 12 12 11 11 11 12 13 14 13 14 13 14 14 13 13 14 15 14 14 14 13 14 14 13 11 11 10 11 11 11 12 11 10 11 11 9 9 11 13 15 14 13 13 11 11 11 10 11 8 7 8 9 9
13 13 13 12 12 13 13 14 12 13 13 12 10 10 13 14 13 11 11 12 11 10 10 11 12 12 10 12 11 11 12 12 13 13 12 12 10 8 11 14 13 15 13 14 14 14 15 14 13 13 14 13 14 14 14 12 13 12 12 11 11 12 11 8 8 9 7 5 5 5 6 7 8 9 9 9 9 7 8 8 8 9 10 9 9
14 12 12 12 12 12 13 13 13 14 12 12 12 11 12 10 10 10 11 12 11 10 10 10 9 11 11 12 11 11 11 13 13 12 12 12 12 11 11 11 12 13 13 13 13 13 14 14 14 13 14 13 14 14 14 13 12 12 11 12 9 5 3 4 5 6 5 4 4 3 4 4 4 4 5 6 6 6 7 8 8 8 9 9 10
12 11 10 10 12 12 12 12 11 9 10 10 9 9 10 10 10 10 11 12 12 11 9 7 7 7 7 10 10 11 11 12 13 13 12 12 11 12 12 12 13 13 13 13 13 13 13 13 12 12 12 12 12 13 13 13 12 10 7 4 4 6 6 5 3 4 4 3 1 2 3 4 5 7 8 9 7 8 9 9 9 8 8 9 8
Wind_Speed
13 12 11 11 12 12 12 11 11 10 11 10 10 10 9 9 9 9 9 8 9 8 8 9 8 8 7 7 7 7 7 7 7 7 7 7 6 6 7 7 6 5 5 5 4 5 6 5 4 3 3 3 1 1 2 1 1 3 4 5 4 3 3 2 1 4 5 2 3 3 6 4 4 3 6 6 8 9 9 6 7 8 8 8 9
13 12 11 11 13 13 12 10 11 10 11 11 11 10 9 10 10 10 10 9 9 9 9 8 8 8 7 7 7 7 7 8 7 7 8 7 6 6 7 7 6 5 5 5 4 4 5 5 4 4 4 4 4 4 3 5 3 4 3 3 2 1 2 2 0 1 4 4 5 6 5 3 3 3 4 6 8 9 9 8 8 8 8 8 8
12 12 12 12 13 13 12 11 11 11 12 10 10 10 10 11 10 10 10 9 8 9 9 9 9 9 8 8 8 7 7 8 7 7 7 7 7 6 6 6 6 6 6 5 5 5 6 5 4 2 2 4 3 4 4 4 3 5 4 3 3 1 1 2 1 1 4 4 3 4 3 3 2 4 5 5 7 7 7 8 8 8 8 7 8
12 12 12 13 13 13 12 11 12 12 12 10 11 10 11 11 10 10 10 9 9 8 9 10 9 9 8 8 8 7 7 7 6 6 7 7 7 7 7 6 6 5 6 5 5 5 5 5 4 3 3 3 2 3 3 4 3 4 4 4 4 3 3 4 1 1 2 3 4 3 3 3 3 3 5 7 8 8 6 6 7 9 9 8 8
13 13 13 14 13 13 13 12 13 12 12 10 11 11 11 10 9 11 10 9 9 9 8 8 8 8 8 8 7 6 6 6 6 6 6 5 6 6 7 6 5 5 6 6 6 5 5 5 4 4 3 5 4 3 4 4 3 4 4 4 3 3 3 4 4 2 2 4 4 3 3 3 3 3 5 8 7 7 8 7 6 7 9 9 7
13 13 14 14 13 14 13 12 13 13 12 11 12 11 11 10 9 9 10 10 9 8 9 7 7 7 6 7 6 6 6 5 6 6 6 5 6 6 6 6 5 5 5 5 5 5 5 5 4 4 5 6 4 3 3 4 4 4 4 4 3 3 4 4 3 4 4 3 3 5 4 4 5 3 5 6 5 6 9 11 10 6 5 10 11
13 14 14 14 13 13 13 12 12 12 11 11 10 10 10 10 10 10 10 9 9 9 8 8 7 8 8 8 7 8 7 6 7 7 6 6 7 7 7 6 5 5 5 5 5 4 5 5 5 5 6 5 5 3 3 4 4 4 4 4 3 4 4 3 4 4 4 5 4 4 4 4 3 5 6 5 4 1 3 7 10 10 8 7 9
13 14 14 14 13 13 12 12 12 11 10 10 11 10 10 10 10 10 9 9 9 10 9 9 8 8 8 8 7 7 7 7 7 7 6 7 7 7 7 6 6 5 5 5 4 5 5 6 6 5 6 5 5 3 4 3 3 4 3 3 4 4 4 4 5 5 5 5 3 4 4 3 6 3 4 4 4 6 4 3 8 9 10 9 8
14 14 14 14 13 13 12 11 11 11 11 11 11 11 10 10 10 10 9 9 8 9 8 8 8 8 8 8 8 7 8 7 7 7 7 7 7 8 7 7 7 6 5 5 5 6 5 5 5 5 5 8 8 6 5 4 4 4 3 3 3 3 3 4 4 5 5 5 6 5 6 7 6 5 7 4 6 6 6 3 5 7 7 9 11
14 14 14 13 12 13 12 11 12 12 12 12 11 11 10 9 10 9 9 10 9 9 8 8 9 9 9 9 8 8 7 6 9 13 10 8 7 7 7 7 7 6 6 6 6 6 5 4 4 10 10 10 8 7 6 6 5 4 3 3 2 3 3 3 4 3 3 5 4 4 6 7 7 5 4 5 5 5 7 6 7 8 6 7 10
14 14 13 13 13 12 12 12 12 12 12 12 11 11 11 9 9 9 9 9 10 9 8 9 8 7 8 9 9 8 7 7 14 13 13 13 8 7 7 7 6 6 6 7 7 6 4 4 4 6 7 7 4 5 5 6 6 5 3 2 2 1 2 2 2 1 1 2 2 3 4 6 8 6 6 7 4 4 5 5 6 7 8 8 9
14 14 13 13 13 13 12 12 12 12 12 12 12 11 9 9 9 9 8 9 8 8 8 8 7 7 7 8 8 7 6 10 15 13 13 13 10 8 7 6 6 6 6 7 6 6 5 5 3 3 3 4 3 3 2 2 3 3 3 3 3 1 2 1 0 0 0 2 3 4 3 6 7 7 7 4 6 6 6 6 6 6 9 8 8
14 13 13 14 13 13 12 13 12 12 12 12 11 10 10 9 9 9 9 8 7 8 7 8 7 7 8 8 7 6 4 10 13 14 14 14 14 10 7 6 7 6 6 7 7 6 6 5 4 3 2 7 4 2 2 3 4 4 3 3 5 6 7 6 6 4 2 1 3 5 4 4 5 7 4 4 3 6 5 7 7 8 7 8 8
13 13 13 14 14 13 13 13 13 12 12 12 11 10 10 10 9 8 8 8 8 8 7 9 7 6 7 8 6 6 6 10 14 14 13 13 14 10 6 7 6 6 7 7 7 7 7 7 6 4 3 3 3 4 3 3 3 1 2 3 4 6 7 10 10 9 6 6 5 5 7 3 6 6 10 5 5 7 6 8 8 8 9 9 10
13 14 14 14 14 13 14 13 12 12 12 12 11 11 10 9 9 8 9 10 9 9 8 8 7 7 7 8 8 7 8 14 15 14 13 12 10 6 4 5 6 5 6 6 8 8 8 8 8 7 5 4 3 4 4 3 3 3 3 3 4 6 6 6 6 5 5 6 7 8 10 8 7 8 8 7 5 5 3 5 7 7 8 8 7
12 13 14 14 15 14 13 13 12 11 11 11 12 11 10 10 10 8 8 7 6 7 6 7 7 7 8 9 9 9 8 13 15 15 14 12 11 6 5 3 4 6 5 5 6 7 7 7 6 6 8 7 7 8 6 5 3 1 1 2 3 4 6 8 9 8 7 7 7 8 8 9 9 9 10 9 8 6 5 5 4 3 4 7 8
13 13 13 13 14 14 14 13 12 12 11 11 11 11 11 9 8 8 9 8 8 8 7 7 7 8 9 10 11 10 10 12 17 18 17 15 11 7 6 6 4 3 5 3 5 5 5 6 7 7 7 6 9 9 7 4 1 1 1 3 4 3 2 3 3 8 10 11 13 13 12 13 14 15 15 16 9 4 1 4 7 4 6 7 7
13 13 13 13 13 12 13 14 12 11 11 12 11 9 8 7 8 8 10 9 8 8 7 7 7 9 11 11 11 11 9 11 16 14 14 14 10 8 7 7 8 8 8 8 8 6 3 7 6 6 8 7 10 10 9 5 3 2 0 1 3 2 2 4 3 2 8 8 8 9 11 12 13 13 13 12 8 4 2 5 6 4 6 6 6
13 14 13 12 12 12 12 13 13 12 12 11 10 10 9 8 7 7 8 8 7 7 7 8 7 6 8 10 10 12 9 9 14 15 14 13 9 6 7 6 7 6 7 7 8 7 8 10 12 8 8 9 12 11 10 7 5 3 2 0 1 1 1 3 4 6 7 9 9 9 10 12 10 8 7 10 4 5 4 3 4 4 6 7 7
12 12 13 13 12 11 10 10 9 11 12 10 9 9 7 7 8 8 7 7 7 7 6 7 8 6 7 9 9 9 10 8 9 13 13 13 12 8 6 7 7 6 5 8 8 6 7 5 7 10 12 13 12 12 10 9 5 3 2 1 0 2 2 4 3 3 4 4 7 6 7 8 9 7 3 3 4 5 4 4 3 3 4 6 7
13 12 12 12 12 12 11 13 13 11 11 11 9 8 7 8 9 9 9 7 7 6 7 7 7 6 5 6 8 7 9 10 9 13 13 13 13 12 6 5 4 4 4 7 8 8 7 7 6 9 13 14 13 11 10 8 6 4 3 3 2 0 2 3 4 5 4 5 6 7 7 7 8 4 3 3 4 5 4 4 3 3 3 5 7
12 12 12 11 11 11 12 11 11 10 10 9 9 8 7 8 9 9 8 8 8 8 7 7 7 7 6 6 6 7 7 10 8 11 13 13 13 13 8 6 6 5 5 7 7 7 8 8 6 8 13 15 14 13 11 9 7 3 4 6 4 2 2 2 3 4 5 5 6 7 7 7 8 6 6 4 6 5 4 4 4 4 4 3 4
13 13 12 11 11 11 11 11 10 7 7 9 11 11 9 9 8 8 9 9 10 9 9 8 8 7 7 6 6 6 7 8 12 11 11 12 12 11 10 7 7 4 5 5 5 4 1 1 4 11 14 15 14 14 12 12 8 5 7 6 5 3 1 2 2 4 4 5 6 6 7 7 5 5 6 6 6 4 5 4 5 6 6 6 5
13 13 11 11 11 10 10 11 10 9 11 10 9 10 9 8 8 7 9 10 10 10 8 8 8 8 8 7 7 7 7 7 9 13 11 13 12 13 12 10 10 4 4 5 4 4 1 1 3 11 14 15 15 15 14 12 8 9 8 7 6 3 1 2 3 3 3 5 6 7 7 7 4 5 5 6 6 4 5 4 7 7 7 7 7
12 11 12 12 11 11 10 10 9 9 10 11 11 10 9 9 9 7 9 8 9 9 8 8 8 8 7 8 7 5 6 5 5 8 12 14 14 13 12 10 8 7 5 3 3 3 3 7 9 13 16 15 16 13 9 9 8 7 8 8 5 2 4 3 4 3 4 6 6 6 8 6 5 5 5 5 4 2 2 5 6 6 7 6 5
12 12 12 12 12 11 10 9 9 9 10 9 10 10 12 11 10 8 8 8 8 9 9 8 8 8 8 7 7 6 6 7 8 8 8 10 11 14 14 13 9 6 5 5 6 5 3 3 3 9 11 9 6 5 5 5 7 8 9 7 4 5 4 5 4 4 6 6 6 7 8 5 5 5 4 3 3 3 3 5 6 7 7 7 9
12 11 11 9 9 10 11 9 8 8 8 7 7 7 7 8 9 9 9 9 9 8 8 8 8 8 8 8 7 6 7 7 8 7 7 8 9 9 9 8 8 7 5 5 5 4 3 2 2 6 8 10 7 5 5 5 5 5 5 5 6 5 5 5 6 6 6 6 6 7 7 7 4 3 4 5 5 5 3 4 4 6 6 6 5
12 11 11 10 9 10 9 11 12 8 8 9 8 7 6 8 9 10 11 11 10 9 9 9 9 9 9 8 7 7 8 7 8 9 9 9 8 7 7 7 7 7 7 6 5 3 3 4 4 4 6 4 3 2 2 4 5 5 5 5 6 6 7 7 6 5 7 7 6 6 6 6 5 5 4 4 4 6 4 3 3 5 6 4 5
13 12 11 9 8 8 9 10 9 9 8 7 7 9 11 11 10 8 5 7 9 11 11 9 9 8 8 9 9 8 7 9 10 10 12 12 11 9 8 8 8 7 8 8 4 3 3 3 2 3 4 5 4 4 4 5 5 6 6 6 5 5 5 5 6 7 7 6 6 7 7 8 7 4 3 4 5 6 4 4 4 3 5 2 4
11 10 9 9 8 8 8 8 8 8 8 8 7 4 2 4 5 6 7 9 11 10 9 10 11 9 8 8 9 11 11 10 12 16 16 15 15 15 14 13 12 10 9 12 8 5 6 6 5 5 5 5 6 6 6 6 6 6 6 7 6 6 6 6 6 7 7 7 7 7 7 5 5 4 5 5 6 5 5 3 4 2 1 3 6
9 9 9 8 10 9 9 8 7 7 7 7 7 7 5 3 5 5 9 9 11 11 12 11 11 11 10 8 7 9 10 11 16 17 16 16 16 15 14 14 14 12 12 9 5 7 7 7 7 6 7 6 5 6 6 6 6 6 6 6 6 7 6 6 7 7 8 7 7 8 7 6 5 5 6 6 5 6 6 5 3 3 3 3 4
10 9 9 8 10 9 8 8 8 8 8 7 7 7 7 6 3 5 2 14 13 13 14 13 14 13 12 9 6 2 8 15 18 17 17 16 16 16 16 15 14 12 12 13 7 7 6 7 7 7 7 7 7 7 7 6 6 6 7 5 6 7 7 7 8 7 7 7 6 6 6 6 7 6 6 5 4 5 6 6 6 4 5 4 4
10 9 8 9 9 9 9 8 8 8 9 9 9 8 8 8 8 5 4 4 8 14 16 14 14 15 13 11 13 12 10 12 17 17 17 17 17 16 15 14 12 12 12 8 8 7 7 7 7 7 7 7 7 7 7 7 7 7 6 6 6 7 7 9 8 7 6 6 5 5 6 6 5 4 4 4 4 5 6 6 5 4 4 6 7
10 10 10 11 11 9 9 8 8 8 8 8 8 9 9 8 7 6 7 5 3 4 1 7 9 10 9 13 14 13 14 16 16 17 17 16 15 13 12 8 9 12 12 9 7 7 7 7 7 8 8 7 6 6 6 6 7 7 7 6 6 7 8 6 4 5 5 5 5 7 6 4 4 4 5 5 5 4 5 4 4 4 6 7 7
9 10 14 11 8 8 7 7 7 7 7 7 8 8 8 7 7 7 7 8 8 8 7 2 1 2 6 9 11 12 13 13 14 14 15 14 13 11 10 5 4 3 5 6 7 7 7 8 9 8 7 7 7 7 7 6 6 6 6 6 7 7 7 5 5 5 5 5 5 5 4 3 4 3 3 4 4 5 5 5 6 6 6 7 6
10 9 9 9 8 7 7 7 7 7 7 6 5 5 6 7 8 8 7 6 6 6 4 3 2 4 3 6 10 12 12 13 13 13 13 13 14 15 8 7 5 6 7 7 7 8 8 8 8 8 7 6 6 6 6 6 6 6 6 6 7 7 7 6 5 5 5 4 5 5 5 4 4 3 3 3 4 5 6 5 6 7 7 6 7
10 9 9 8 9 9 9 9 8 8 7 6 6 6 6 6 7 7 6 6 6 5 5 5 4 3 4 1 4 7 9 11 11 12 13 14 16 12 8 10 9 8 8 8 8 8 8 7 6 6 6 6 5 5 4 5 5 5 6 7 6 6 7 6 6 4 4 5 5 4 3 3 3 3 3 5 6 5 5 6 5 6 6 8 6
9 10 9 9 7 8 8 8 8 10 9 7 6 6 6 6 7 7 7 7 7 6 6 6 6 7 8 6 4 4 7 9 10 7 4 6 7 7 7 7 8 7 7 7 7 7 7 6 5 5 5 5 5 4 4 5 6 6 7 7 5 4 6 6 6 5 5 5 5 5 4 3 4 4 3 3 5 5 6 6 7 7 7 6 3
8 10 12 12 9 8 8 7 8 8 7 7 7 7 8 7 6 6 7 6 7 6 6 6 6 6 5 5 5 6 9 5 6 7 7 7 7 7 7 6 6 7 7 7 6 6 6 6 5 5 5 5 5 5 6 6 6 7 7 5 5 5 6 6 6 6 6 5 5 4 4 5 4 4 4 4 5 5 6 6 6 6 6 5 6
8 7 10 13 8 8 8 8 8 8 7 7 6 6 7 8 7 7 7 7 7 7 7 7 7 7 6 7 6 7 7 7 7 7 7 7 7 7 6 7 8 8 8 8 7 7 7 7 5 5 6 6 6 6 6 7 7 6 6 5 6 6 6 6 6 4 5 6 6 5 4 6 6 5 4 5 6 5 5 6 7 6 6 5 6
8 8 8 9 9 8 7 8 7 7 7 7 7 7 7 8 8 7 7 7 7 8 7 8 8 7 7 10 13 13 9 8 8 8 9 9 9 9 8 7 8 8 8 8 8 8 8 7 7 7 7 7 7 7 8 7 7 5 5 6 5 6 7 5 5 4 4 4 5 5 6 6 6 4 6 6 6 6 7 6 6 5 6 6 6
9 9 8 8 9 8 8 8 7 8 7 7 7 7 7 6 6 6 7 6 7 8 7 7 7 8 10 17 17 18 10 7 7 7 6 6 7 8 8 8 8 8 9 9 9 8 8 8 8 7 8 8 8 8 7 7 6 6 6 6 6 7 7 5 4 3 4 5 5 6 6 6 6 6 7 6 6 7 7 6 6 6 6 7 7
10 9 8 8 8 8 9 8 7 7 7 6 6 5 6 6 6 6 6 6 6 7 7 7 6 7 8 14 17 17 9 6 6 8 8 8 8 7 7 8 8 9 8 7 7 7 7 8 8 8 8 9 8 8 7 6 5 6 7 7 8 7 4 3 3 4 4 5 6 6 6 6 5 5 6 6 6 6 7 6 6 7 7 6 6
8 8 7 7 7 7 6 7 7 7 7 7 7 7 7 6 6 6 6 6 6 7 7 7 6 6 6 8 10 10 8 7 7 8 8 8 8 8 8 9 8 7 7 6 6 7 7 6 6 7 6 6 6 5 6 6 5 6 7 8 6 5 4 4 5 6 5 6 6 7 6 6 6 5 6 6 6 6 7 6 6 6 6 7 5
8 8 7 7 7 7 7 7 7 7 8 6 6 6 7 7 7 6 6 6 6 6 7 6 6 6 5 6 9 10 10 9 9 8 8 8 8 8 8 8 8 8 8 7 7 6 6 6 6 5 5 6 6 5 6 6 6 7 6 6 6 6 6 6 6 7 6 6 6 7 7 7 6 6 6 6 6 6 6 6 7 6 5 5 4
8 8 8 7 7 7 7 7 7 7 8 7 7 6 7 7 7 7 7 6 6 7 5 5 5 5 6 6 7 8 9 8 8 8 8 7 7 8 8 9 8 8 8 7 7 7 7 7 7 7 7 7 8 7 7 6 7 7 7 6 7 7 7 7 6 5 6 6 7 7 7 6 6 5 7 6 6 6 7 7 5 5 6 5 4
8 7 7 7 7 7 7 7 7 6 6 7 6 7 7 7 7 7 7 7 7 6 7 6 6 6 6 6 7 8 8 8 8 7 8 8 8 8 8 8 8 8 8 8 7 7 7 7 7 7 8 7 8 9 8 7 7 7 7 7 7 7 7 6 5 5 6 7 7 6 6 6 6 6 6 7 6 6 6 7 8 6 4 4 4
7 7 7 7 7 7 7 7 7 7 6 6 6 6 6 5 5 6 6 6 7 6 6 6 6 6 6 6 7 7 7 8 7 7 7 7 7 7 8 8 8 7 7 8 8 7 7 8 8 8 8 8 8 8 8 8 7 7 6 7 7 7 8 8 6 5 5 4 4 5 5 6 6 6 7 6 6 6 6 7 5 3 4 5 4
7 7 7 7 7 7 7 7 8 7 7 7 6 6 6 6 5 5 6 6 6 6 6 5 5 4 5 6 7 7 7 7 7 7 6 7 5 5 7 8 7 8 7 7 7 7 8 8 7 7 7 7 8 8 8 8 7 7 7 7 8 10 10 8 6 5 5 4 4 4 4 4 5 5 6 5 6 5 5 4 3 4 5 4 5
7 7 7 7 7 7 7 7 7 8 7 7 6 6 7 6 6 5 6 6 6 5 5 5 5 6 5 5 5 7 6 7 7 7 7 7 7 6 7 7 7 8 7 8 7 7 7 8 8 8 8 8 8 8 8 8 8 8 7 8 8 5 3 3 4 4 2 0 1 1 2 2 3 3 3 3 3 3 4 5 4 5 5 4 4
7 6 6 6 7 6 6 7 7 6 6 7 6 5 6 6 6 6 6 7 7 7 6 5 5 4 5 6 6 6 6 6 7 7 7 7 7 7 7 7 7 7 7 7 7 7 7 7 7 7 7 7 7 8 8 7 7 7 6 4 4 5 5 5 2 3 4 3 0 0 2 3 3 4 4 4 4 4 5 6 6 5 4 3 4
Wind_Direction
174 172 166 165 160 164 163 163 162 159 160 159 158 157 151 146 144 141 134 138 141 142 142 144 146 147 146 144 145 146 141 141 138 131 130 133 130 124 121 118 120 125 119 113 104 107 107 107 100 88 104 81 20 45 58 341 32 53 74 92 85 91 97 94 35 306 307 282 280 289 304 320 323 342 353 350 349 349 355 351 354 351 345 338 332
174 166 166 164 162 162 162 162 161 157 158 156 155 152 144 144 142 140 141 146 147 148 147 148 148 149 148 149 150 148 144 143 143 137 139 139 133 129 128 127 126 128 121 119 117 116 112 98 80 75 81 96 83 59 59 53 80 74 29 99 105 85 136 99 201 229 283 320 327 311 305 323 325 329 15 358 353 347 352 354 349 346 340 335 329
169 164 164 163 161 161 160 161 157 155 155 154 153 147 141 141 143 142 144 149 151 152 153 153 154 154 154 155 153 151 149 148 149 144 145 143 140 137 135 132 133 132 125 130 125 116 107 109 113 100 76 78 70 57 49 41 45 71 35 11 53 60 52 82 85 293 279 283 278 306 290 321 320 339 1 4 353 345 348 354 345 336 334 331 327
168 163 160 159 159 159 161 156 154 155 156 154 150 148 142 141 143 144 148 154 155 157 156 157 156 159 158 157 157 153 152 151 150 146 145 144 142 137 135 135 135 134 133 128 126 123 126 122 144 136 106 97 73 73 54 54 47 67 61 36 59 31 28 20 349 233 254 312 306 298 295 337 322 0 5 4 353 340 347 339 340 332 328 331 329
166 163 159 158 160 161 160 157 156 158 156 153 150 148 144 140 144 148 152 158 161 157 159 157 156 158 157 156 155 153 155 152 143 140 138 138 134 132 135 135 137 138 136 139 139 135 134 137 155 147 115 95 79 66 54 48 51 69 54 35 36 25 15 13 327 313 332 318 298 293 321 329 329 347 14 5 344 340 335 340 340 325 323 323 319
164 159 159 159 163 164 161 158 158 159 157 154 149 148 144 143 148 155 158 162 160 160 156 157 154 153 151 154 152 153 152 143 141 142 142 136 128 132 133 135 140 142 144 144 142 145 143 150 156 134 115 120 117 77 53 38 49 74 57 33 29 13 23 353 353 356 8 334 336 325 337 356 347 335 350 0 358 341 334 333 334 334 330 328 330
161 158 159 161 163 164 161 161 159 158 157 151 146 146 147 151 157 162 166 162 157 155 155 150 154 154 158 155 154 154 152 145 146 146 145 139 137 136 139 138 140 145 143 142 139 132 125 108 90 93 95 98 94 88 78 53 49 49 57 58 22 37 23 11 11 7 14 6 344 345 330 338 12 345 337 345 337 323 298 324 331 331 336 337 324
159 159 160 163 163 161 160 157 158 158 150 146 145 146 151 160 164 165 162 159 155 157 159 158 158 155 156 155 154 153 150 149 150 152 149 147 142 143 145 141 142 138 131 130 122 111 105 99 103 105 106 107 115 113 101 98 73 63 23 50 40 40 30 20 21 17 12 9 4 332 335 337 343 319 318 340 335 329 339 345 326 322 325 326 320
158 160 163 164 163 158 155 155 155 154 149 145 146 152 161 166 166 165 162 157 155 157 155 153 153 154 153 155 155 156 155 159 160 159 152 149 144 146 143 143 141 135 130 125 112 107 102 108 110 121 117 111 109 111 111 113 105 90 36 54 44 50 30 35 29 21 8 16 352 351 346 341 319 323 325 324 331 313 309 342 303 306 315 324 324
159 162 164 162 159 156 153 153 155 155 152 150 152 160 165 168 167 165 164 159 155 154 151 155 157 158 156 156 156 159 162 162 164 160 154 150 148 143 138 142 140 138 138 127 111 112 118 120 131 123 118 118 117 115 112 105 112 119 132 96 90 63 51 48 31 20 19 7 349 345 339 319 304 304 302 291 291 307 325 331 329 319 328 324 319
160 161 161 158 155 153 153 155 155 158 156 151 157 165 169 166 166 165 163 160 154 153 151 158 161 160 157 159 160 163 165 164 159 154 150 146 141 138 140 143 141 142 142 133 127 125 117 117 117 123 122 124 129 144 144 147 139 142 122 134 125 121 89 58 3 41 23 354 306 333 307 299 297 293 290 288 303 306 304 318 315 327 337 338 329
160 161 156 154 154 153 155 154 155 157 156 158 163 167 164 163 166 164 158 156 153 150 154 163 160 159 157 159 161 162 162 156 154 148 147 144 139 142 143 146 147 144 147 132 131 129 134 128 133 132 133 139 145 139 157 163 178 186 199 195 220 237 183 165 165 319 287 308 304 281 266 278 281 293 291 304 305 318 319 329 326 330 328 326 314
160 159 155 154 154 154 155 155 155 158 162 161 162 164 164 166 166 159 160 158 149 153 160 159 162 158 156 156 153 145 126 154 146 147 150 148 147 146 148 147 144 148 149 138 140 141 139 141 152 161 166 161 148 162 180 212 230 229 247 277 283 250 240 228 215 211 183 217 243 282 253 253 286 286 279 290 314 314 325 329 326 325 314 308 303
160 157 156 158 157 155 156 157 159 162 162 161 162 165 168 169 166 158 152 155 153 154 154 163 161 152 154 146 133 124 129 151 142 144 144 144 149 145 145 145 149 153 160 147 149 150 153 154 164 176 195 197 170 189 202 220 234 251 264 270 265 272 259 247 239 232 216 218 231 250 271 211 257 273 285 296 315 308 327 316 314 313 306 297 296
160 158 158 158 157 158 158 160 160 163 163 162 163 168 169 163 161 160 159 161 160 161 160 162 164 147 143 136 129 138 154 159 144 134 122 113 111 99 125 147 151 157 163 157 157 163 164 166 170 172 167 179 208 187 184 196 184 209 230 243 245 250 252 248 233 224 216 218 223 237 261 270 260 266 278 295 291 285 276 268 277 272 278 286 298
158 158 158 159 160 159 157 158 158 161 162 163 166 170 171 168 162 158 153 155 150 144 145 150 156 145 140 139 138 148 158 161 142 133 122 131 129 117 99 110 157 159 165 169 163 169 168 165 164 167 169 175 173 167 170 166 157 153 199 254 273 262 250 244 226 206 214 217 222 234 249 263 274 279 287 294 299 302 314 312 296 290 317 329 321
159 160 157 158 159 157 155 156 160 160 162 165 171 173 171 167 160 152 151 157 155 157 158 159 152 143 143 145 149 159 164 167 143 143 145 160 141 131 119 102 85 131 162 136 122 138 163 165 165 181 173 173 175 171 161 141 123 130 21 340 310 310 326 346 239 228 243 251 251 253 265 282 292 295 299 299 285 259 288 333 312 336 347 330 316
158 157 156 157 158 156 153 154 158 161 164 171 173 174 169 163 159 155 155 157 160 163 155 146 152 149 150 155 160 154 155 176 156 147 155 165 153 144 140 135 145 157 146 142 122 123 160 167 179 162 174 172 169 155 159 147 157 147 99 27 328 343 349 337 332 264 242 265 301 308 296 291 295 297 298 286 275 178 181 307 300 354 324 315 312
157 157 156 156 157 157 156 157 159 163 169 173 173 173 171 163 153 152 153 153 154 149 149 150 154 148 145 148 148 147 159 172 165 165 170 169 165 151 146 152 155 170 160 146 146 157 189 198 192 186 165 167 166 166 163 163 169 174 153 134 289 339 306 332 332 340 349 348 331 336 331 325 318 311 289 265 264 181 192 236 302 340 314 312 311
154 152 152 154 158 160 156 144 153 168 170 168 169 171 158 147 149 146 146 146 151 155 147 145 146 144 142 146 155 152 154 166 181 169 173 176 177 160 155 163 182 181 171 161 165 195 184 201 185 160 158 158 166 166 170 170 172 167 136 147 32 280 331 343 315 340 327 324 305 305 300 300 304 292 281 332 335 327 321 320 293 279 305 314 317
149 149 152 155 159 155 151 161 169 177 172 169 164 159 157 152 149 147 148 146 144 143 138 140 139 128 123 136 145 160 160 165 185 178 178 184 184 169 166 168 170 172 174 180 180 180 185 194 206 183 162 165 167 166 163 174 169 162 161 175 191 149 23 335 319 339 322 316 314 308 305 311 294 297 327 305 325 320 328 312 287 262 306 322 321
146 148 153 157 156 152 152 169 174 172 166 153 145 150 157 158 157 152 146 142 135 129 129 127 129 131 133 142 148 157 168 169 172 190 189 191 192 183 168 179 167 159 178 189 184 171 182 190 189 203 177 169 169 169 173 169 170 161 185 192 220 319 311 287 290 313 327 322 318 312 306 308 299 328 316 310 310 326 323 304 297 310 308 272 272
149 153 153 152 155 156 161 160 158 156 151 152 156 162 161 158 152 145 141 135 137 140 140 142 143 143 136 138 152 161 168 182 182 185 198 198 199 201 188 168 170 145 146 139 139 127 43 222 213 197 186 176 172 174 176 175 168 192 194 204 229 245 255 282 294 318 324 314 307 299 299 288 297 319 310 304 307 323 316 305 323 328 320 313 311
151 153 149 147 148 148 149 156 159 154 152 154 155 151 152 147 144 144 147 148 150 148 150 145 145 150 157 158 169 175 177 174 193 188 188 197 201 201 201 177 174 159 134 128 133 137 146 208 227 199 196 182 178 180 184 175 188 191 197 214 226 222 249 282 289 292 302 299 294 288 282 273 286 304 306 291 304 300 286 318 342 327 322 319 318
151 146 145 146 150 153 154 156 156 151 152 151 151 153 150 147 144 152 150 153 154 152 154 156 160 164 165 180 181 167 166 164 171 202 198 195 200 204 205 188 170 144 141 140 137 140 184 214 225 204 196 190 186 178 172 181 185 187 201 218 223 223 225 232 255 275 291 272 271 275 269 265 251 256 273 294 299 317 329 342 336 323 319 316 306
151 145 146 156 161 153 148 149 149 148 149 157 159 160 157 158 154 155 155 157 160 157 160 163 170 174 181 186 190 172 166 159 182 196 207 205 207 205 202 201 202 197 173 162 167 158 124 27 258 195 184 171 149 161 180 192 202 212 225 227 222 220 217 223 238 236 251 263 265 269 266 264 280 281 295 315 2 312 308 343 335 327 329 335 338
144 141 145 146 144 147 147 151 149 147 144 140 145 149 153 153 152 156 159 159 161 163 165 168 170 178 187 187 182 174 175 177 187 185 195 200 207 206 195 192 190 183 192 175 179 167 103 105 122 139 143 155 157 162 178 190 202 224 227 221 216 217 214 208 219 229 246 248 255 258 264 262 276 336 323 334 312 286 288 320 324 305 314 320 340
146 147 148 148 149 151 151 149 148 151 155 154 151 152 159 163 164 169 169 168 166 170 172 177 182 184 187 184 182 179 183 179 182 188 197 201 202 193 180 173 178 192 191 196 181 161 132 119 105 107 116 127 149 155 211 215 217 218 229 228 227 225 229 230 232 232 244 241 254 261 269 284 292 278 289 304 280 276 292 319 304 301 303 326 350
144 146 147 142 141 142 146 154 157 157 159 161 165 171 171 173 176 177 181 172 174 171 178 184 187 187 182 182 180 188 189 189 200 192 192 191 186 182 183 190 192 194 200 170 139 158 136 126 155 146 142 164 186 206 215 220 230 226 236 241 239 235 233 225 231 237 237 238 248 248 252 241 251 264 270 289 277 277 300 323 298 277 302 350 323
135 141 141 140 137 138 144 151 153 155 157 158 149 131 84 125 165 168 171 184 186 185 173 182 187 180 186 198 189 188 195 199 186 190 192 190 189 189 192 193 193 193 181 168 162 159 173 179 198 184 183 181 199 208 214 215 223 230 234 239 237 231 231 232 235 243 245 239 245 241 231 220 239 268 276 264 278 291 297 304 286 304 320 323 324
137 139 142 149 153 153 152 151 152 153 155 155 152 149 133 51 66 146 180 178 189 183 184 191 177 181 181 192 207 204 191 171 180 188 187 188 189 192 195 198 195 189 158 154 178 175 180 188 198 196 198 198 201 209 210 215 228 231 239 238 233 233 234 234 240 241 243 240 224 213 211 207 231 245 254 253 264 290 303 298 281 299 293 303 316
148 152 149 142 141 144 150 150 152 154 157 159 158 158 155 147 131 30 190 187 184 183 178 176 178 187 192 188 169 231 194 179 180 180 183 185 191 194 197 198 194 173 168 162 178 203 189 186 194 201 198 202 211 204 209 216 226 227 234 246 252 246 239 245 239 229 232 227 220 218 217 219 222 233 237 257 271 283 277 285 294 300 305 315 287
138 137 132 136 141 144 150 156 162 163 163 163 164 166 165 169 171 171 25 50 169 178 175 178 184 191 197 194 172 162 175 179 178 178 182 189 192 196 196 194 182 170 150 165 190 196 206 204 199 199 197 206 205 201 212 218 224 232 230 228 238 247 228 231 225 219 225 227 216 221 222 226 233 252 268 273 272 268 264 272 290 302 295 302 296
139 142 147 152 154 160 162 163 165 168 169 168 170 171 178 178 173 151 147 140 71 29 288 208 208 211 197 182 179 170 167 174 180 182 186 189 191 189 179 184 180 174 172 188 186 203 200 210 210 210 211 207 201 199 212 221 225 230 237 237 238 247 247 243 219 234 240 247 235 234 227 239 241 250 275 279 267 249 265 280 294 306 306 292 277
140 142 144 148 155 158 157 157 159 161 165 169 168 175 174 168 142 150 161 161 172 178 189 167 60 194 189 185 178 167 165 169 175 179 181 180 176 161 137 120 152 207 214 214 199 202 203 209 216 217 211 205 206 196 205 213 218 226 231 246 255 254 251 241 235 239 237 240 229 228 218 221 243 227 223 248 272 290 296 300 297 283 279 286 270
135 141 148 142 141 147 148 147 153 159 167 165 162 156 152 155 155 163 158 160 169 168 153 140 125 38 119 167 160 156 157 164 171 174 176 167 154 139 148 179 185 196 198 207 206 209 209 214 214 218 210 209 199 201 204 215 230 232 236 234 242 242 238 242 244 253 249 204 193 192 171 184 191 202 218 240 261 259 262 269 273 281 278 264 253
145 146 146 152 153 155 157 154 149 150 149 143 139 145 148 151 157 157 162 166 174 169 157 138 125 115 71 87 160 155 156 162 166 168 167 164 164 166 176 174 186 185 193 203 204 208 211 216 207 205 205 207 211 212 217 230 242 250 254 251 244 248 248 241 245 228 200 189 188 178 183 219 238 254 250 271 280 280 272 270 279 284 278 258 258
135 150 161 158 147 143 149 153 147 141 146 150 150 150 152 159 156 159 165 178 172 162 162 169 179 173 175 179 147 140 108 95 92 79 106 149 169 187 190 188 181 182 196 206 206 205 213 213 203 205 210 206 216 225 231 250 254 254 249 247 251 248 261 264 262 224 208 199 205 205 205 233 249 265 258 232 257 273 285 282 285 283 276 270 266
144 145 139 137 144 149 156 153 146 150 152 154 158 156 160 156 154 163 173 169 169 172 173 174 184 193 188 142 133 120 113 127 161 179 179 190 195 190 187 177 175 195 199 199 204 208 216 213 212 209 212 210 218 223 223 234 241 244 245 248 258 270 277 267 248 224 214 213 223 222 213 224 235 245 237 234 256 252 258 272 267 239 248 279 296
136 139 146 142 139 143 148 151 150 148 153 157 163 164 156 159 162 165 165 165 175 174 177 179 191 200 175 153 149 150 167 175 188 183 184 187 196 202 191 179 188 198 199 202 200 206 211 215 209 211 214 220 218 227 226 233 238 240 245 243 244 252 251 240 232 221 220 224 221 227 215 225 228 231 241 229 237 245 247 248 244 254 263 278 284
138 139 145 149 144 134 128 136 148 152 153 159 164 171 176 167 162 161 164 169 172 175 184 190 194 193 179 179 173 174 181 187 187 190 191 189 193 198 202 201 195 203 204 202 207 205 206 205 207 209 213 215 219 222 227 225 234 233 235 233 233 239 240 231 219 227 239 239 236 232 232 228 232 214 239 248 242 241 245 245 263 272 278 279 277
143 144 145 140 137 135 142 150 150 152 156 154 161 168 164 167 165 168 172 173 172 181 185 192 188 188 185 178 178 185 190 199 187 187 188 194 198 204 207 209 209 207 207 209 209 206 202 204 206 207 210 215 215 223 222 226 227 231 231 236 234 225 218 229 226 230 239 246 246 240 238 234 234 227 236 247 263 264 272 273 267 273 280 280 279
143 144 143 145 147 153 156 159 156 155 163 163 168 159 157 161 164 168 176 180 175 179 185 187 185 183 189 183 184 187 199 194 186 192 196 199 199 201 206 213 215 216 213 212 207 202 200 201 205 209 211 214 214 213 208 219 226 234 233 222 212 204 215 241 267 267 259 254 252 244 236 236 236 241 246 251 248 255 255 260 271 271 270 269 270
134 134 136 136 133 134 140 148 155 159 167 167 161 160 163 167 170 172 175 185 180 178 182 190 190 183 186 183 182 181 199 200 199 203 205 202 199 200 207 213 217 220 222 217 209 204 204 203 208 215 214 216 214 210 208 216 215 216 213 210 209 206 213 228 240 248 245 242 242 239 240 238 241 243 251 252 249 253 259 258 255 260 259 263 260
132 130 133 133 133 142 147 152 152 154 160 161 163 164 164 166 175 181 181 184 186 179 187 192 198 198 176 166 178 189 198 203 205 206 206 204 203 206 209 212 214 218 217 220 216 210 213 215 217 222 234 242 244 243 240 238 231 224 216 205 204 216 220 224 229 231 226 227 236 241 245 244 249 245 247 252 244 239 250 253 251 251 262 260 260
135 135 142 145 140 148 149 154 161 150 159 174 171 168 173 171 178 184 186 183 180 182 188 190 198 185 181 179 184 190 198 202 209 210 210 205 202 207 209 211 213 214 216 216 212 210 211 212 212 216 222 231 235 238 239 235 235 233 228 212 205 210 217 224 228 226 228 226 234 235 243 244 250 245 246 247 252 240 244 254 251 243 238 248 251
136 144 150 155 152 156 156 150 151 151 148 158 160 159 167 172 174 175 176 173 176 181 186 196 194 186 175 176 181 194 198 204 210 208 208 207 204 202 204 211 213 214 215 216 210 211 211 213 212 214 219 225 232 238 244 246 242 235 228 218 212 217 227 229 228 225 229 229 225 226 228 234 248 260 258 254 255 256 249 251 249 242 231 233 253
141 147 151 149 141 143 143 143 143 143 152 160 162 164 173 183 176 161 162 165 167 180 190 190 192 183 173 180 184 193 198 208 210 211 211 208 204 199 198 199 205 208 211 213 214 211 211 211 213 216 220 226 229 236 241 242 241 236 232 226 223 219 220 223 232 234 231 220 209 212 220 230 244 248 256 252 253 252 249 251 247 243 248 261 263
151 152 148 147 150 150 154 156 152 160 166 178 168 163 176 189 189 173 168 165 163 166 170 178 198 204 188 182 182 188 195 197 207 215 215 217 209 203 199 199 201 205 205 215 217 214 213 215 216 217 221 225 226 229 234 237 238 238 237 237 226 216 215 208 204 211 200 196 197 191 200 210 225 238 244 247 247 233 230 246 248 259 266 256 248
167 156 156 155 161 162 160 161 163 167 165 173 171 171 179 183 176 173 168 167 169 171 179 186 204 210 199 186 187 191 184 194 206 214 215 214 215 215 204 200 203 209 210 216 218 215 215 215 215 216 219 222 224 226 229 231 234 233 231 230 226 208 149 122 112 106 123 117 149 164 170 187 205 222 228 230 239 247 254 257 253 249 246 246 247
164 149 152 148 157 151 147 148 150 157 148 146 163 170 172 171 176 170 159 166 173 180 180 171 173 162 164 179 188 191 198 202 205 208 211 213 213 215 213 205 201 205 213 218 221 220 219 217 218 218 220 222 229 228 229 228 233 234 231 209 143 130 137 139 138 118 117 107 125 167 227 233 236 253 256 251 240 246 251 255 253 240 233 234 254